This is the latest recevied weather packets stored in our database for station/object KD4EED. If no packets are shown the sender has not sent any weather packets the latest 10 day(s).
| Time | Temp. | Humidity | Pressure | Rain* | Wind** | Luminosity | Snow |
|---|---|---|---|---|---|---|---|
| 1788401439 | 23.33° C | 60% | 1011.2 hPa | - | - | 4 W/m² | - |
| 1788401135 | 23.89° C | 58% | 1011.3 hPa | - | - | 6 W/m² | - |
| 1788400835 | 23.89° C | 57% | 1011.3 hPa | - | - | 8 W/m² | - |
| 1788400531 | 23.89° C | 55% | 1011.2 hPa | - | - | 10 W/m² | - |
| 1788400226 | 24.44° C | 54% | 1011.2 hPa | - | - | 14 W/m² | - |
| 1788399925 | 24.44° C | 53% | 1011.3 hPa | - | - | 23 W/m² | - |
| 1788399620 | 25° C | 53% | 1011.2 hPa | - | - | 30 W/m² | - |
| 1788399319 | 25° C | 53% | 1011.3 hPa | - | - | 27 W/m² | - |
| 1788399014 | 25° C | 54% | 1011.6 hPa | - | - | 41 W/m² | - |
| 1788398713 | 25° C | 55% | 1011.5 hPa | - | - | 47 W/m² | - |
| 1788398412 | 25° C | 54% | 1011.6 hPa | - | - | 51 W/m² | - |
| 1788398107 | 25.56° C | 53% | 1011.4 hPa | - | - | 57 W/m² | - |
| 1788397802 | 25.56° C | 53% | 1011.5 hPa | - | - | 62 W/m² | - |
| 1788397497 | 26.11° C | 49% | 1011.6 hPa | - | - | 69 W/m² | - |
| 1788397195 | 26.67° C | 48% | 1011.5 hPa | - | - | 76 W/m² | - |
| 1788396890 | 27.22° C | 48% | 1011.4 hPa | - | - | 81 W/m² | - |
| 1788396587 | 27.22° C | 49% | 1011.5 hPa | - | - | 88 W/m² | - |
| 1788396286 | 27.78° C | 49% | 1011.5 hPa | - | - | 95 W/m² | - |
| 1788395983 | 27.78° C | 50% | 1011.5 hPa | - | - | 102 W/m² | - |
| 1788395682 | 27.78° C | 49% | 1011.6 hPa | - | - | 112 W/m² | - |
| 1788395378 | 27.78° C | 49% | 1011.5 hPa | - | - | 124 W/m² | - |
| 1788395072 | 27.78° C | 50% | 1011.6 hPa | - | - | 146 W/m² | - |
| 1788394772 | 27.78° C | 49% | 1011.5 hPa | - | - | 165 W/m² | - |
| 1788394472 | 27.78° C | 48% | 1011.7 hPa | - | - | 189 W/m² | - |
| 1788394172 | 27.22° C | 48% | 1011.5 hPa | - | - | 204 W/m² | - |
* Rain since midnight (hover to see other rain measurements)
** Current wind speed in m/s (hover to see current wind gust speed)